Regional Weather Roundup
Issued by NWS

Home | Current Version | Previous Version | Text Only | Print | Product List | Glossary Off
Versions: 1 2 3 4 5 6 7 8 9 10 11 12 13 14 15 16 17 18 19 20 21 22 23 24 25 26 27 28 29 30 31 32 33 34 35 36 37 38 39 40 41 42 43 44 45 46 47 48 49 50

807
ASUS44 KOUN 081010
RWROK

WEATHER ROUNDUP FOR OKLAHOMA
NATIONAL WEATHER SERVICE NORMAN OK
400 AM CST MON FEB 08 2016

NOTE: "FAIR" INDICATES FEW OR NO CLOUDS BELOW 12,000 FEET WITH NO
      SIGNIFICANT WEATHER AND/OR OBSTRUCTIONS TO VISIBILITY.

OKZ001>007-009>012-014-015-017-081100-
NORTHWEST OKLAHOMA AND THE PANHANDLE

CITY           SKY/WX    TMP DP  RH WIND       PRES   REMARKS
GAGE           CLEAR     30  16  56 NW14      30.35F WCI  19
GUYMON         CLEAR     26  14  60 W8        30.40F WCI  18
ENID/WOODRING  CLEAR     36  19  51 NW16G22   30.26S WCI  26
$$

OKZ016-021>023-033>039-044-045-081100-
SOUTHWEST OKLAHOMA

CITY           SKY/WX    TMP DP  RH WIND       PRES   REMARKS
LAWTON/REGL    CLEAR     42  15  33 NW10G18   30.34R
LAWTON/FT SILL PTCLDY    40  17  38 NW16      30.32R WCI  32
FREDERICK      CLEAR     33  20  58 W12       30.35S WCI  24
CLINTON        CLEAR     35  14  42 NW14      30.35S WCI  26
HOBART         CLEAR     33  18  53 NW13      30.36S WCI  24
ALTUS AFB      CLEAR     34  15  45 NW10      30.38R WCI  26
$$

OKZ018>020-024>031-081100-
CENTRAL OKLAHOMA

CITY           SKY/WX    TMP DP  RH WIND       PRES   REMARKS
OKLAHOMA CITY  PTCLDY    38  16  40 NW17      30.27S WCI  28
OKC/WILEY POST CLEAR     39  16  39 NW16G26   30.28S WCI  30
OKC/TINKER AFB CLEAR     39  16  39 NW18      30.25S WCI  29
STILLWATER     CLEAR     36  19  50 NW12      30.24F WCI  28
GUTHRIE        CLEAR     38  16  40 NW13G23   30.27S WCI  30
$$

OKZ008-013-054>072-081100-
NORTHEAST OKLAHOMA

CITY           SKY/WX    TMP DP  RH WIND       PRES   REMARKS
TULSA          CLEAR     39  20  46 NW17G28   30.17S WCI  30
TULSA/JONES    CLEAR     40  19  43 VRB7G18   30.19S
PONCA CITY     CLEAR     35  19  52 NW12G20   30.21F WCI  27
BARTLESVILLE   CLEAR     37  17  44 VRB6G21   30.18S WCI  32
MUSKOGEE       CLEAR     40  20  44 NW16G25   30.18S WCI  31
$$

OKZ032-040>043-046>053-073>077-081100-
SOUTH CENTRAL/SOUTHEAST OKLAHOMA

CITY           SKY/WX    TMP DP  RH WIND       PRES   REMARKS
ARDMORE/DWNTWN MOCLDY    43  14  31 N5        30.29R
MCALESTER      PTCLDY    41  18  39 NW10      30.21R
$$





USA.gov is the U.S. government's official web portal to all federal, state and local government web resources and services.